Christchurch, New Zealand

1:12 PM NZDT on October 20, 2017 (GMT +1300)
Christchurch International

Weather History for NZCH - November, 2012

Change the Weather History Date:

Thursday, November 15, 2012

  Actual Average Record
Temperature  
Mean Temperature 53 °F -  
Max Temperature 60 °F 64 °F 87 °F (2008)
Min Temperature 46 °F 46 °F 37 °F (2002)
Degree Days  
Heating Degree Days 12    
Growing Degree Days 3 (Base 50)    
Moisture  
Dew Point 47 °F    
Average Humidity 82    
Maximum Humidity 94    
Minimum Humidity 63    
Precipitation  
Precipitation 0.00 in - - ()
Sea Level Pressure  
Sea Level Pressure 29.69 in    
Wind  
Wind Speed 4 mph ()    
Max Wind Speed 10 mph    
Max Gust Speed -    
Visibility 6.2 miles    
Events      
Averages and records for this station are not official NWS values.
T = Trace of Precipitation, MM = Missing Value Source: Averaged Metar Reports

Daily Weather History Graph

Daily Weather History Graph

Search for Another Location

Airport or City:

Trip Planner

Search our weather history database for the weather conditions in past years. The results will help you decide how hot, cold, wet, or windy it might be!

Date:

Astronomy

Nov. 15, 2012 Rise Set
Actual Time 5:55 AM NZDT 8:34 PM NZDT
Civil Twilight 5:22 AM NZDT 9:06 PM NZDT
Nautical Twilight 4:41 AM NZDT 9:48 PM NZDT
Astronomical Twilight 3:54 AM NZDT 10:35 PM NZDT
Moon 6:41 AM NZDT (11/15) 10:04 PM NZDT (11/15)
Length of Visible Light 15h 44m
Length of Day
14h 38m
New Moon, 2% of the Moon is Illuminated
Nov 15
New Moon
Nov 21
First Quarter
Nov 29
Full
Dec 7
Last Quarter
Dec 13
New

Hourly Weather History & Observations

Time (NZDT) Temp. Windchill Dew Point Humidity Pressure Visibility Wind Dir Wind Speed Gust Speed Precip Events Conditions
12:00 AM 50.0 °F - 46.4 °F 87% 29.71 in 6.2 mi ENE 3.5 mph - N/A   Partly Cloudy
1:00 AM 50.0 °F - 44.6 °F 82% 29.71 in 6.2 mi ESE 2.3 mph - N/A   Partly Cloudy
2:00 AM 48.2 °F - 46.4 °F 93% 29.68 in 6.2 mi NE 2.3 mph - N/A   Partly Cloudy
3:00 AM 50.0 °F - 46.4 °F 87% 29.65 in - ENE 3.5 mph - N/A   Clear
4:00 AM 50.0 °F - 44.6 °F 82% 29.65 in - North 2.3 mph - N/A   Clear
5:00 AM 46.4 °F 45.2 °F 44.6 °F 93% 29.65 in - SSW 3.5 mph - N/A   Clear
6:00 AM 46.4 °F - 44.6 °F 93% 29.65 in - SW 2.3 mph - N/A   Clear
7:00 AM 48.2 °F - 46.4 °F 93% 29.68 in - WSW 3.5 mph - N/A   Clear
8:00 AM 50.0 °F - 48.2 °F 94% 29.68 in - SSW 3.5 mph - N/A   Clear
9:00 AM 53.6 °F - 48.2 °F 82% 29.71 in 6.2 mi WSW 6.9 mph - N/A   Partly Cloudy
10:00 AM 53.6 °F - 48.2 °F 82% 29.71 in 6.2 mi SW 5.8 mph - N/A   Scattered Clouds
11:00 AM 55.4 °F - 46.4 °F 72% 29.71 in 6.2 mi SW 5.8 mph - N/A   Scattered Clouds
12:00 PM 55.4 °F - 48.2 °F 77% 29.71 in 6.2 mi WSW 6.9 mph - N/A   Mostly Cloudy
1:00 PM 57.2 °F - 48.2 °F 72% 29.68 in 6.2 mi SW 6.9 mph - N/A   Mostly Cloudy
2:00 PM 59.0 °F - 50.0 °F 72% 29.68 in 6.2 mi SSW 10.4 mph - N/A   Mostly Cloudy
3:00 PM 60.8 °F - 50.0 °F 68% 29.68 in 6.2 mi South 9.2 mph - N/A   Mostly Cloudy
4:00 PM 59.0 °F - 46.4 °F 63% 29.68 in 6.2 mi South 8.1 mph - N/A   Scattered Clouds
5:00 PM 59.0 °F - 48.2 °F 67% 29.68 in 6.2 mi SE 8.1 mph - N/A   Scattered Clouds
6:00 PM 57.2 °F - 50.0 °F 77% 29.68 in 6.2 mi East 5.8 mph - N/A   Scattered Clouds
7:00 PM 55.4 °F - 50.0 °F 82% 29.68 in 6.2 mi ENE 10.4 mph - N/A   Scattered Clouds
8:00 PM 53.6 °F - 48.2 °F 82% 29.71 in 6.2 mi ENE 9.2 mph - N/A   Mostly Cloudy
9:00 PM 51.8 °F - 48.2 °F 88% 29.71 in 6.2 mi NE 4.6 mph - N/A   Mostly Cloudy
10:00 PM 51.8 °F - 48.2 °F 88% 29.74 in 6.2 mi NNE 2.3 mph - N/A   Mostly Cloudy
11:00 PM 51.8 °F - 48.2 °F 88% 29.74 in 6.2 mi NE 2.3 mph - N/A   Scattered Clouds